Location: Unspecified
(0.0000°N, 0.0000°E)
Time: 19:36:07
(UTC+00:00)

Tiros 1 despin weight - Pass Details

Date: 27 May 2022
Orbit: 591 x 639 km, 48.2° (Epoch: 25 June)

Event Time Altitude Azimuth Distance (km) Brightness Sun altitude
Rises 14:12:54 0° 214° (SW) 2,932 ? 50.6°
Reaches altitude 10° 14:15:16 10° 211° (SSW) 2,018 ? 50.1°
Maximum altitude 14:19:53 67° 129° (SE) 685 ? 49.2°
Drops below altitude 10° 14:24:26 10° 47° (NE) 1,989 ? 48.2°
Sets 14:26:44 0° 44° (NE) 2,886 ? 47.7°
